sat.trackr.live / text

‹ back to catalog

STARLINK-4390

NORAD 53653 · 2022-105F

PAYLOAD ACTIVE UNKNOWN

§ Identity

Operator
Country
US
Launch date
2022-08-31
Launch site
AFWTR
Launch vehicle
Mass (kg)
RCS (m²)

Purposes: comms

External: N2YO · Heavens-Above · Gunter

§ Orbital elements

Epoch: 2026-05-25T04:00:03.998880Z

Period
93.63 min
Inclination
97.6037°
Eccentricity
0.0001501
Mean motion
15.37907629 rev/d
Perigee alt
451.3 km
Apogee alt
453.3 km
Semi-major
6,830.4 km
B*
2.4965e-3
RAAN
27.0879°
Arg perigee
74.3012°
Mean anomaly
44.9668°
Rev number
582

§ Raw data

STARLINK-43901 53653U 22105F   26145.16671295  .00093994  00000+0  24965-2 0  99982 53653  97.6037  27.0879 0001501  74.3012  44.9668 15.37907629  5824

JSON: /api/v1/satellites/53653 · /tle

For live sub-satellite position, see the globe view (requires WebGL).

§ Visibility from observer

Set your observer location to see the next 7 days of passes ≥ 10°. The values pass through the URL so the page stays shareable.

No JS? Fill the form by hand. The geolocation button needs JavaScript.